Wind_Speed
27 28 28 29 28 29 30 30 30 28 27 26 26 26 26 25 24 24 24 23 23 23 23 23 24 24 24 23 23 23 24 24 23 24 25 25 25 25 25 26 26 27 27 27
28 28 29 29 29 29 29 30 30 29 28 27 27 27 27 26 25 25 25 25 25 25 25 25 26 26 25 25 25 25 25 25 25 26 27 27 26 27 27 27 27 28 28 28
29 29 29 29 28 29 29 29 30 29 28 28 28 29 28 27 27 27 27 27 28 28 27 27 27 27 26 26 26 26 26 26 26 27 28 29 28 28 28 28 28 28 29 30
31 30 31 29 28 29 29 30 30 30 29 29 29 29 29 29 29 29 29 29 29 30 30 29 28 28 28 28 28 27 27 28 28 29 29 30 29 28 28 28 29 29 29 30
32 32 31 30 29 29 29 30 30 30 29 30 30 30 30 30 30 29 30 30 31 31 31 30 29 29 29 28 28 28 29 29 29 29 30 31 31 30 29 29 30 30 30 30
33 33 32 30 29 29 30 30 29 29 30 30 30 30 29 29 30 29 30 31 31 30 31 31 30 30 29 29 29 29 30 30 30 30 31 31 32 31 30 30 30 31 30 29
33 33 33 31 31 30 31 30 29 29 29 30 30 29 29 29 28 28 29 30 31 31 31 31 32 30 29 29 30 30 30 30 30 30 31 31 32 33 32 31 31 32 31 30
33 34 33 32 32 32 31 30 30 29 30 30 29 29 29 28 29 29 29 30 31 32 33 33 32 32 30 30 31 31 31 31 31 31 32 32 32 32 32 32 32 31 31 31
33 32 32 32 32 32 32 31 30 30 30 30 30 29 29 28 29 29 30 30 31 32 33 33 33 31 31 31 32 31 31 31 31 32 32 32 33 33 32 32 32 32 31 32
33 32 32 32 32 31 31 31 31 30 29 30 30 29 29 28 28 28 29 30 29 30 31 32 32 32 32 32 32 32 31 31 31 31 32 33 33 33 32 32 32 33 33 32
32 32 32 32 32 32 32 32 31 30 30 29 29 29 28 28 28 28 29 29 28 29 30 30 31 31 31 32 33 33 31 30 31 31 32 32 32 32 32 32 32 32 33 33
32 32 31 31 31 32 32 32 31 31 30 29 28 27 28 28 28 28 28 28 29 29 30 30 31 32 33 33 33 32 31 30 29 30 30 30 31 31 31 31 31 31 32 33
32 32 32 32 32 31 31 30 30 29 29 29 27 27 28 28 29 29 29 28 29 30 30 31 31 31 31 31 31 30 30 30 30 30 30 29 29 29 30 31 31 31 32 32
30 31 31 31 31 31 30 29 30 29 29 29 28 29 28 28 29 29 29 30 30 31 31 31 31 31 31 31 30 29 29 30 30 30 30 29 29 29 30 30 31 31 31 32
28 28 29 29 28 28 28 28 28 29 29 28 28 28 27 27 28 29 29 30 31 31 32 31 31 31 31 31 31 30 30 30 29 29 29 29 29 29 30 31 31 31 31 32
27 28 27 27 27 27 27 27 27 28 28 27 27 27 27 28 28 29 30 31 31 31 31 31 31 31 31 31 31 30 30 29 29 29 29 29 30 30 30 30 30 30 30 30
26 26 27 27 27 27 27 27 27 27 27 27 27 27 28 28 28 29 29 30 31 31 31 31 31 31 30 30 29 29 30 30 30 29 29 29 29 29 28 28 28 28 28 28
25 26 26 26 26 26 27 27 27 27 27 26 26 26 27 28 28 28 28 29 29 29 30 30 30 30 29 29 29 29 29 29 29 29 28 28 27 27 26 26 26 26 26 26
25 24 24 24 25 25 26 26 26 25 26 26 26 26 27 27 28 28 27 26 27 27 28 28 29 29 29 28 28 28 28 28 28 27 27 26 26 27 26 25 24 24 24 24
23 23 23 23 23 23 23 23 24 25 25 25 26 26 25 25 26 26 26 25 25 25 26 26 27 27 27 28 27 27 27 26 26 27 26 25 25 25 25 24 24 24 24 24
20 21 21 21 22 23 23 22 23 23 24 24 25 25 26 26 26 26 25 24 23 24 24 25 25 25 25 26 26 26 25 25 25 25 25 25 25 24 23 23 23 22 23 22
19 19 20 20 20 21 21 21 21 22 22 23 23 24 25 24 24 24 23 23 23 23 23 23 23 23 24 24 24 24 23 23 23 24 24 24 24 23 22 21 21 21 22 22
18 18 19 19 19 19 20 20 20 21 21 21 22 22 22 22 22 22 22 22 22 22 22 22 22 23 23 23 23 23 22 22 21 22 22 23 23 22 21 21 21 21 22 22
16 17 18 18 18 18 18 19 19 20 21 21 21 20 19 20 21 21 20 20 20 21 21 22 22 22 22 22 21 21 21 20 20 20 21 21 21 21 21 21 20 21 21 22
16 16 17 17 17 17 17 17 18 19 19 19 19 19 19 18 18 18 18 18 19 19 20 20 20 20 20 20 19 18 18 18 19 20 20 20 19 20 20 20 20 21 21 22
16 16 15 15 16 16 16 16 16 16 17 17 18 18 18 18 19 19 19 18 18 18 18 18 18 19 18 18 17 17 17 17 18 18 18 18 19 19 20 21 21 22 22 22
14 14 15 15 15 15 15 15 15 15 15 16 16 16 16 17 18 18 18 17 17 17 17 17 17 17 16 16 15 15 16 16 17 17 18 19 19 19 21 21 22 21 21 20
Wind_Direction
262 260 261 263 264 265 266 267 269 271 272 272 270 271 272 273 274 274 274 271 271 272 274 276 278 279 277 274 272 273 274 273 273 273 271 272 273 274 275 277 276 276 275 273
261 261 262 263 264 265 266 267 269 270 270 271 271 271 272 273 274 273 272 269 270 272 273 275 278 280 280 275 274 276 275 273 270 271 271 271 272 273 276 276 276 275 273 272
263 264 263 263 263 264 265 267 269 269 271 270 270 271 272 272 273 272 271 270 270 271 272 274 278 279 281 276 275 277 276 274 271 270 271 271 271 273 275 276 276 276 273 272
265 266 264 266 267 266 266 267 268 269 269 270 270 270 271 273 271 271 270 271 271 274 274 274 276 278 279 278 277 277 276 274 273 271 270 271 271 273 273 274 274 275 275 273
265 267 267 267 269 269 267 267 267 269 269 269 270 271 272 272 271 271 270 271 272 274 275 275 277 278 279 278 276 276 276 276 275 273 271 271 272 274 274 273 274 275 276 276
265 268 268 269 269 269 269 268 268 268 268 269 270 271 271 270 270 270 271 273 273 273 275 276 277 279 278 278 279 279 278 278 277 277 276 273 272 273 274 275 275 275 276 277
263 266 267 270 270 270 269 270 270 269 270 270 270 273 272 270 270 270 272 273 274 274 275 276 277 278 279 281 282 280 279 278 277 277 277 276 274 274 275 276 275 274 273 274
262 264 267 269 270 270 271 270 269 269 269 269 270 271 272 272 272 272 273 275 275 275 276 277 279 279 281 283 283 281 280 279 277 276 276 275 274 276 277 277 277 276 275 274
261 263 265 267 268 270 271 270 270 271 271 271 271 269 268 270 273 275 274 275 278 277 278 279 280 280 283 284 284 283 281 279 278 276 276 275 275 276 276 276 275 274 274 273
260 261 262 263 265 268 271 272 273 273 274 274 273 271 270 271 275 277 278 278 278 280 282 282 281 280 282 284 285 286 284 280 278 277 278 278 276 276 276 276 275 274 275 275
260 261 262 261 263 265 268 271 273 274 274 274 273 271 270 271 274 275 277 278 278 279 282 285 284 283 283 285 285 285 284 283 281 280 279 279 278 277 276 276 276 274 275 275
261 262 263 264 265 266 268 270 272 273 272 271 270 270 271 272 274 275 276 278 279 278 281 284 285 284 285 286 286 285 284 283 283 283 281 280 279 278 276 275 275 275 275 275
261 261 264 265 265 265 266 267 268 269 270 270 271 273 274 274 274 275 275 276 278 280 282 283 284 284 284 284 284 283 282 282 283 283 284 283 280 278 276 276 275 274 274 274
260 261 263 264 265 265 266 267 267 268 270 271 273 275 275 275 275 275 275 277 278 280 280 281 283 284 285 284 282 282 282 283 283 283 284 284 282 278 277 276 275 274 273 273
261 262 264 264 265 266 265 266 267 268 271 273 275 276 276 277 276 276 276 277 278 280 281 281 281 282 283 283 282 282 282 281 282 283 284 285 284 280 279 277 275 274 274 274
261 262 264 264 264 264 266 267 267 267 270 272 274 274 276 277 277 277 277 278 279 280 280 280 280 280 281 280 279 279 279 279 280 282 284 285 286 282 280 278 277 275 274 274
260 261 262 264 264 264 265 267 269 270 271 273 275 276 276 278 279 279 279 279 279 280 281 280 280 280 280 280 280 279 277 278 279 280 282 283 284 281 280 280 278 276 276 275
261 262 263 265 266 266 267 269 270 271 272 274 276 278 280 281 281 281 280 280 280 280 279 279 279 279 279 280 280 279 277 277 278 279 280 280 281 282 282 281 280 278 278 277
262 263 264 266 267 268 269 270 271 273 275 277 279 280 283 283 283 283 282 280 281 281 281 280 279 279 279 280 280 279 278 277 278 278 281 283 284 283 282 282 281 280 279 279
262 264 266 267 269 271 272 271 272 273 275 278 280 281 282 283 283 284 285 282 283 283 282 282 281 280 280 280 281 281 279 278 278 279 281 281 282 282 281 280 279 279 279 280
265 267 269 270 272 273 274 274 274 274 275 278 280 281 282 282 282 283 283 281 282 282 283 284 283 282 282 283 282 281 279 278 279 279 279 278 279 280 279 279 278 278 279 280
267 268 270 272 273 273 274 274 275 277 279 280 281 282 282 282 282 281 280 281 283 283 285 286 284 284 283 283 282 280 279 279 279 278 277 277 278 277 277 278 278 279 280 282
267 267 268 270 271 273 274 275 276 277 279 281 282 283 283 284 285 284 283 283 284 285 286 287 286 285 284 284 282 279 278 279 279 278 279 280 280 277 277 279 280 282 283 283
269 270 271 271 272 274 274 276 277 277 278 281 284 286 287 288 288 287 287 286 286 287 287 286 287 286 285 285 282 278 278 280 280 280 280 281 280 278 277 278 280 281 283 283
271 271 271 271 271 273 275 277 278 279 279 281 284 287 290 291 291 289 290 291 289 288 288 287 288 288 287 287 284 281 281 281 280 280 281 281 280 279 277 277 279 283 284 284
272 272 273 273 273 273 276 278 280 281 283 284 285 286 288 289 291 292 291 290 291 293 294 293 293 292 291 289 285 283 283 283 282 280 278 279 280 280 281 282 281 284 286 284
269 271 273 275 276 277 277 278 281 283 284 286 287 287 289 288 287 288 289 289 291 295 295 294 294 294 294 291 289 287 284 284 283 283 282 282 282 283 286 287 287 285 284 282
Height
5857 5858 5859 5859 5860 5861 5861 5861 5861 5862 5863 5864 5864 5865 5865 5865 5865 5865 5865 5865 5865 5864 5864 5864 5863 5862 5861 5860 5859 5858 5858 5857 5857 5857 5857 5857 5857 5857 5856 5855 5855 5855 5854 5854
5850 5851 5851 5852 5853 5853 5853 5853 5854 5855 5856 5857 5857 5858 5858 5858 5858 5858 5858 5858 5857 5857 5856 5856 5855 5854 5853 5852 5851 5851 5850 5849 5849 5849 5849 5849 5849 5849 5848 5848 5847 5847 5846 5845
5843 5844 5843 5845 5846 5846 5846 5846 5847 5848 5850 5849 5850 5850 5850 5850 5851 5850 5850 5850 5850 5849 5848 5848 5847 5846 5845 5844 5843 5843 5842 5841 5841 5841 5840 5840 5841 5840 5840 5840 5839 5838 5837 5837
5834 5836 5836 5840 5838 5838 5839 5839 5839 5840 5841 5841 5841 5842 5842 5842 5842 5842 5842 5842 5842 5841 5841 5840 5839 5838 5837 5836 5835 5834 5833 5832 5832 5831 5831 5832 5832 5832 5831 5831 5830 5829 5829 5829
5826 5826 5827 5830 5830 5830 5830 5831 5832 5832 5832 5832 5833 5833 5834 5834 5834 5834 5834 5833 5833 5833 5832 5831 5830 5830 5829 5828 5827 5826 5825 5824 5823 5822 5823 5823 5823 5822 5822 5822 5821 5821 5820 5820
5818 5818 5819 5823 5823 5822 5823 5823 5824 5823 5824 5824 5824 5825 5826 5826 5825 5825 5825 5825 5824 5824 5823 5822 5822 5821 5820 5819 5818 5817 5816 5815 5814 5814 5813 5813 5813 5812 5812 5812 5812 5812 5812 5812
5810 5810 5811 5813 5814 5814 5815 5816 5816 5815 5815 5816 5816 5817 5817 5816 5816 5816 5816 5815 5815 5815 5814 5813 5812 5811 5811 5810 5809 5807 5806 5806 5805 5805 5804 5804 5803 5802 5803 5803 5803 5803 5804 5804
5801 5802 5806 5805 5805 5806 5807 5807 5807 5807 5807 5807 5808 5808 5808 5808 5808 5808 5807 5807 5806 5805 5805 5804 5803 5802 5800 5800 5799 5798 5797 5796 5796 5796 5795 5794 5794 5793 5793 5794 5794 5794 5794 5795
5794 5796 5796 5796 5797 5798 5798 5798 5799 5799 5799 5799 5799 5799 5799 5799 5799 5799 5799 5798 5797 5796 5796 5795 5793 5792 5792 5791 5790 5788 5787 5786 5786 5786 5785 5785 5785 5785 5785 5784 5784 5785 5785 5785
5785 5786 5787 5788 5788 5789 5790 5790 5790 5790 5791 5790 5791 5791 5791 5791 5791 5790 5790 5789 5789 5788 5787 5786 5784 5783 5782 5781 5780 5778 5778 5777 5777 5776 5776 5775 5775 5775 5775 5775 5774 5775 5775 5775
5776 5778 5779 5780 5780 5781 5782 5782 5782 5782 5782 5782 5782 5782 5782 5783 5782 5782 5782 5781 5780 5779 5778 5777 5775 5774 5773 5772 5770 5769 5768 5767 5767 5767 5767 5766 5765 5765 5765 5765 5765 5765 5765 5765
5767 5769 5770 5771 5772 5772 5773 5773 5773 5773 5774 5773 5773 5773 5774 5774 5774 5773 5773 5772 5771 5770 5769 5768 5766 5765 5764 5762 5761 5759 5759 5758 5758 5758 5758 5757 5756 5756 5755 5756 5755 5755 5755 5755
5759 5760 5761 5762 5763 5763 5764 5764 5765 5765 5765 5765 5765 5765 5765 5765 5765 5764 5764 5763 5762 5761 5760 5759 5758 5756 5755 5753 5752 5751 5750 5749 5749 5749 5748 5748 5747 5747 5747 5746 5745 5745 5745 5745
5751 5752 5753 5754 5755 5755 5755 5756 5756 5757 5757 5757 5757 5757 5757 5757 5756 5755 5755 5754 5753 5752 5751 5750 5749 5748 5746 5744 5743 5742 5741 5741 5741 5740 5740 5739 5738 5738 5737 5737 5737 5736 5736 5735
5743 5744 5745 5746 5746 5747 5748 5748 5749 5750 5750 5749 5749 5749 5749 5748 5748 5747 5746 5745 5744 5743 5742 5741 5740 5739 5738 5736 5735 5735 5734 5733 5733 5732 5731 5731 5729 5729 5728 5727 5727 5727 5727 5726
5735 5736 5738 5738 5739 5740 5740 5741 5741 5742 5742 5742 5742 5741 5741 5740 5739 5738 5737 5736 5735 5734 5733 5732 5731 5730 5729 5727 5727 5726 5726 5725 5725 5724 5723 5722 5721 5720 5719 5718 5718 5717 5717 5717
5728 5729 5730 5731 5732 5732 5733 5733 5734 5734 5734 5734 5734 5733 5732 5731 5731 5730 5728 5727 5725 5724 5723 5723 5722 5721 5720 5719 5718 5717 5717 5717 5716 5716 5715 5714 5713 5712 5711 5710 5709 5709 5709 5708
5721 5722 5723 5724 5724 5724 5725 5726 5726 5726 5726 5726 5725 5725 5724 5723 5722 5720 5719 5718 5716 5715 5714 5713 5712 5711 5711 5710 5710 5709 5709 5708 5708 5707 5706 5705 5704 5703 5702 5701 5701 5701 5700 5700
5714 5715 5716 5716 5716 5717 5717 5718 5718 5718 5718 5718 5717 5716 5716 5714 5713 5711 5710 5709 5708 5707 5706 5704 5704 5703 5702 5702 5701 5701 5700 5700 5699 5699 5698 5697 5696 5695 5694 5694 5693 5693 5692 5692
5708 5708 5709 5709 5710 5710 5710 5710 5710 5710 5710 5710 5709 5709 5707 5706 5704 5703 5702 5701 5700 5699 5698 5696 5695 5695 5694 5693 5693 5692 5692 5691 5691 5690 5690 5689 5688 5687 5687 5686 5685 5685 5685 5684
5701 5702 5703 5703 5703 5703 5703 5703 5703 5703 5702 5702 5702 5701 5700 5698 5697 5696 5694 5693 5692 5691 5690 5689 5688 5687 5686 5685 5685 5684 5684 5683 5683 5682 5682 5681 5680 5680 5679 5679 5678 5678 5677 5677
5696 5696 5697 5697 5697 5697 5697 5696 5696 5696 5695 5695 5694 5693 5692 5691 5690 5688 5687 5687 5686 5684 5683 5682 5681 5680 5679 5678 5677 5676 5676 5675 5675 5674 5674 5673 5673 5673 5672 5671 5671 5671 5670 5670
5690 5691 5691 5691 5691 5691 5691 5690 5690 5690 5689 5688 5687 5686 5685 5684 5683 5682 5681 5680 5679 5678 5677 5676 5674 5673 5672 5671 5670 5669 5669 5668 5668 5668 5667 5667 5666 5666 5665 5665 5664 5664 5663 5663
5685 5685 5686 5685 5685 5685 5685 5684 5684 5683 5683 5682 5681 5679 5678 5677 5676 5674 5674 5673 5672 5671 5670 5669 5668 5667 5666 5664 5663 5663 5662 5662 5661 5661 5661 5660 5660 5659 5659 5658 5658 5657 5656 5655
5680 5680 5680 5680 5680 5680 5679 5679 5678 5678 5677 5676 5675 5674 5672 5671 5670 5669 5668 5667 5666 5665 5664 5663 5662 5661 5660 5658 5657 5657 5657 5656 5656 5655 5655 5654 5653 5653 5652 5652 5651 5650 5649 5648
5675 5675 5675 5675 5675 5675 5674 5674 5673 5672 5672 5671 5670 5668 5667 5666 5665 5663 5662 5661 5660 5659 5658 5657 5656 5655 5654 5653 5652 5651 5651 5651 5650 5650 5649 5648 5647 5647 5646 5645 5644 5643 5642 5641
5671 5671 5671 5671 5670 5670 5669 5669 5668 5668 5667 5666 5665 5663 5662 5661 5660 5658 5657 5656 5655 5654 5653 5652 5651 5650 5649 5648 5647 5647 5646 5646 5645 5644 5643 5643 5642 5641 5640 5639 5638 5637 5635 5634